Header for Extended Forecast Station List Page

Search by: ID | Name | Date | Parm | Value | Avg | % Avg
Sort by: ID | Name | Date | Parm | Value | Avg | % Avg

Enter search or view all records.

Click on id for station plot
#IDNameDateParmValueAvg% Avg
0LEOI1KOOTENAI-AT LEONIA01-23-2023DISCHARGE (KAF)25442352108
1FCFM8NF FLATHEAD-NEAR COLUMBIA FALLS01-23-2023DISCHARGE (KAF)36766056
2WGCM8MF FLATHEAD-NEAR WEST GLACIER01-23-2023DISCHARGE (KAF)40962865
3CFMM8FLATHEAD-AT COLUMBIA FALLS01-23-2023DISCHARGE (KAF)1645217776
4DLGM8CLARK FORK-AT DEER LODGE01-23-2023DISCHARGE (KAF)426070
5DRMM8CLARK FORK-NR DRUMMOND01-23-2023DISCHARGE (KAF)11916572
6RCCM8ROCK CREEK-NEAR CLINTON01-23-2023DISCHARGE (KAF)6011453
7BONM8BLACKFOOT-NEAR BONNER01-23-2023DISCHARGE (KAF)32640481
8ABOM8CLARK FORK-ABOVE MISSOULA01-23-2023DISCHARGE (KAF)52472472
9BITM8BITTERROOT-NEAR MISSOULA01-23-2023DISCHARGE (KAF)24752547
10BELM8CLARK FORK-BELOW MISSOULA01-23-2023DISCHARGE (KAF)772127760
11STRM8ST. REGIS-NEAR ST. REGIS01-23-2023DISCHARGE (KAF)12017369
12SRGM8CLARK FORK-AT ST REGIS01-23-2023DISCHARGE (KAF)1035171760
13PRTI1PRIEST-NEAR PRIEST RIVER01-23-2023DISCHARGE (KAF)42951883
14SPOW1SPOKANE-AT SPOKANE01-23-2023DISCHARGE (KAF)1936242180
15SATI1ST MARIES-NEAR SANTA01-23-2023DISCHARGE (KAF)138133104
16CIBW1COLUMBIA-AT INTL BOUNDARY01-23-2023DISCHARGE (KAF)141302007470
17LAUW1KETTLE-AT LAURIER01-23-2023DISCHARGE (KAF)57597259
18TONW1OKANOGAN-NEAR TONASKET01-23-2023DISCHARGE (KAF)43774759
19PATW1METHOW-NEAR PATEROS01-23-2023DISCHARGE (KAF)24339162
20ARDW1ENTIAT-NEAR ARDENVOIR01-23-2023DISCHARGE (KAF)497764
21PESW1WENATCHEE-AT PESHASTIN01-23-2023DISCHARGE (KAF)55872277
22EASW1YAKIMA-AT EASTON01-23-2023DISCHARGE (KAF)849984
23TNAW1TEANAWAY-BELOW FORKS01-23-2023DISCHARGE (KAF)127120106
24UMTW1YAKIMA-AT UMTANUM01-23-2023DISCHARGE (KAF)48753691
25CLFW1NACHES-NEAR CLIFFDEL01-23-2023DISCHARGE (KAF)20525082
26NACW1NACHES-NEAR NACHES01-23-2023DISCHARGE (KAF)28435979
27PARW1YAKIMA-NEAR PARKER01-23-2023DISCHARGE (KAF)48769470
28KIOW1YAKIMA-AT KIONA01-23-2023DISCHARGE (KAF)767101076
29CHEI1FALL RIVER-NEAR CHESTER01-23-2023DISCHARGE (KAF)17020284
30ANTI1HENRYS FORK-AT ST. ANTHONY01-23-2023DISCHARGE (KAF)43450186
31TEAI1TETON-NEAR ST. ANTHONY01-23-2023DISCHARGE (KAF)13116679
32REXI1HENRYS FORK-AT REXBURG01-23-2023DISCHARGE (KAF)46554785
33JKSW4SNAKE-NEAR JACKSON01-23-2023DISCHARGE (KAF)39655671
34ALPW4SNAKE-NEAR ALPINE01-23-2023DISCHARGE (KAF)53072273
35HEII1SNAKE-NEAR HEISE01-23-2023DISCHARGE (KAF)12161140107
36SIFI1SNAKE-AB EAGLE ROCK NR IDAHO FALLS01-23-2023DISCHARGE (KAF)12691158110
37SHYI1SNAKE-NEAR SHELLEY01-23-2023DISCHARGE (KAF)11991118107
38SNAI1SNAKE-AT BLACKFOOT01-23-2023DISCHARGE (KAF)1017849120
39BFTI1SNAKE-NEAR BLACKFOOT01-23-2023DISCHARGE (KAF)1000846118
40PIHI1PORTNEUF-AT POCATELLO01-23-2023DISCHARGE (KAF)737399
41MILI1SNAKE-AT MILNER01-23-2023DISCHARGE (KAF)485488
42HOTI1BRUNEAU-NEAR HOT SPRINGS01-23-2023DISCHARGE (KAF)6810267
43SWAI1SNAKE-BELOW SWAN FALLS01-23-2023DISCHARGE (KAF)1767189593
44HWRI1BIG LOST-AT HOWELL RANCH NEAR CHILLY01-23-2023DISCHARGE (KAF)264263
45HALI1BIG WOOD-AT HAILEY01-23-2023DISCHARGE (KAF)569062
46BIGI1BOISE-AT GLENWOOD BRIDGE01-23-2023DISCHARGE (KAF)310153202
47PARI1BOISE-NEAR PARMA01-23-2023DISCHARGE (KAF)379230164
48EMMI1PAYETTE-NEAR EMMETT01-23-2023DISCHARGE (KAF)59576877
49WSRI1WEISER-NEAR WEISER01-23-2023DISCHARGE (KAF)36637598
50WEII1SNAKE-AT WEISER01-23-2023DISCHARGE (KAF)3399367692
51WHBI1SALMON-AT WHITEBIRD01-23-2023DISCHARGE (KAF)1756270065
52TRYO3GRANDE RONDE-TROY01-23-2023DISCHARGE (KAF)993105394
53ANAW1SNAKE-NEAR ANATONE01-23-2023DISCHARGE (KAF)6349896071
54ORFI1CLEARWATER-AT OROFINO01-23-2023DISCHARGE (KAF)2382277586
55SPDI1CLEARWATER-AT SPALDING01-23-2023DISCHARGE (KAF)3889448887
56TCHW1WALLA WALLA-NEAR TOUCHET01-23-2023DISCHARGE (KAF)233231101
57GIBO3UMATILLA-NEAR GIBBON01-23-2023DISCHARGE (KAF)869096
58PDTO3UMATILLA-AT PENDLETON01-23-2023DISCHARGE (KAF)19920398
59MYKO3MCKAY CREEK-NEAR PILOT ROCK01-23-2023DISCHARGE (KAF)344478
60UMAO3UMATILLA-NEAR UMATILLA01-23-2023DISCHARGE (KAF)17118294
61MONO3NF JOHN DAY-AT MONUMENT01-23-2023DISCHARGE (KAF)41054176
62SERO3JOHN DAY-AT SERVICE CK01-23-2023DISCHARGE (KAF)57777874
63MODO3DESCHUTES-AT MOODY NR BIGGS01-23-2023DISCHARGE (KAF)14961465102
64PITW1KLICKITAT-NEAR PITT01-23-2023DISCHARGE (KAF)47949397
65HODO3HOOD-NEAR TUCKER BRIDGE01-23-2023DISCHARGE (KAF)280268105
66UNDW1WHITE SALMON-NEAR UNDERWOOD01-23-2023DISCHARGE (KAF)339340100
67LYDM8KOOTENAI-LIBBY DAM01-23-2023INFLOW (KAF)1386192472
68HHWM8SF FLATHEAD-HUNGRY HORSE DAM01-23-2023INFLOW (KAF)70989579
69KERM8FLATHEAD-SELI’Š KSANKA QLISPE’ DAM01-23-2023INFLOW (KAF)1852278666
70NOXM8CLARK FORK-NOXON RAPIDS DAM01-23-2023INFLOW (KAF)3072473765
71CABI1CLARK FORK-CABINET GORGE DAM01-23-2023INFLOW (KAF)3427540663
72ALFW1PEND OREILLE-ALBENI FALLS DAM01-23-2023INFLOW (KAF)4478638270
73COEI1COEUR D ALENE-COEUR D ALENE LAKE01-23-2023INFLOW (KAF)2122239189
74LLKW1SPOKANE-AT LONGLAKE01-23-2023INFLOW (KAF)2274275683
75GCDW1COLUMBIA-GRAND COULEE DAM01-23-2023INFLOW (KAF)170842346173
76CHJW1COLUMBIA-CHIEF JOSEPH DAM01-23-2023INFLOW (KAF)180532571970
77WELW1COLUMBIA-WELLS DAM01-23-2023INFLOW (KAF)187112705369
78CHDW1CHELAN-LAKE CHELAN DAM01-23-2023INFLOW (KAF)29746963
79RRHW1COLUMBIA-ROCKY REACH DAM01-23-2023INFLOW (KAF)190472762669
80WANW1COLUMBIA-WANAPUM DAM01-23-2023INFLOW (KAF)195942855769
81PRWW1COLUMBIA-PRIEST RAPIDS DAM01-23-2023INFLOW (KAF)195922862668
82KEDW1YAKIMA-KEECHELUS LAKE01-23-2023INFLOW (KAF)10088113
83KADW1KACHESS-KACHESS DAM01-23-2023INFLOW (KAF)8884105
84CLUW1CLE ELUM-CLE ELUM LAKE01-23-2023INFLOW (KAF)232230101
85BUDW1BUMPING-BUMPING LAKE DAM01-23-2023INFLOW (KAF)6768100
86RILW1TIETON-RIMROCK LAKE NEAR RIMROCK01-23-2023INFLOW (KAF)10711990
87IPDI1HENRYS FORK-ISLAND PARK DAM01-23-2023INFLOW (KAF)11514182
88JLKW4SNAKE-JACKSON LAKE AT DAM01-23-2023INFLOW (KAF)25430384
89PLDI1SF SNAKE-PALISADES DAM01-23-2023INFLOW (KAF)925119677
90RIDI1WILLOW CREEK-RIRIE DAM01-23-2023INFLOW (KAF)3734109
91AFRI1SNAKE-AMERICAN FALLS RESERVOIR01-23-2023INFLOW (KAF)16391497109
92MACI1BIG LOST-MACKAY RESERVOIR NEAR MACKAY01-23-2023INFLOW (KAF)314078
93MAGI1BIG WOOD-MAGIC DAM01-23-2023INFLOW (KAF)8010675
94LWRI1LITTLE WOOD-LITTLE WOOD DAM01-23-2023INFLOW (KAF)4837130
95OWYO3OWYHEE-OWYHEE DAM01-23-2023INFLOW (KAF)471254185
96ARAI1SF BOISE-ANDERSON RANCH DAM01-23-2023INFLOW (KAF)272260105
97LUCI1BOISE-LUCKY PEAK DAM01-23-2023INFLOW (KAF)780655119
98WRMO3MALHEUR-WARM SPRINGS DAM01-23-2023INFLOW (KAF)697691
99BERO3MALHEUR-AGENCY VALLEY DAM01-23-2023INFLOW (KAF)4747100
100BULO3BULLY CREEK-BULLY CREEK DAM01-23-2023INFLOW (KAF)535992
101CSDI1NF PAYETTE-CASCADE DAM01-23-2023INFLOW (KAF)22729278
102DEDI1DEADWOOD-NEAR LOWMAN01-23-2023INFLOW (KAF)546484
103BRNI1SNAKE-BROWNLEE DAM01-23-2023INFLOW (KAF)3797407193
104DWRI1NF CLEARWATER-DWORSHAK DAM01-23-2023INFLOW (KAF)18641867100
105LGDW1SNAKE-LOWER GRANITE DAM01-23-2023INFLOW (KAF)102401381674
106LGSW1SNAKE-LITTLE GOOSE DAM01-23-2023INFLOW (KAF)102431386574
107LMNW1SNAKE-LOWER MONUMENTAL DAM01-23-2023INFLOW (KAF)105441403975
108IHDW1SNAKE-ICE HARBOR DAM01-23-2023INFLOW (KAF)105511405575
109MCDW1COLUMBIA-MCNARY DAM01-23-2023INFLOW (KAF)310514384771
110JDAO3COLUMBIA-JOHN DAY DAM01-23-2023INFLOW (KAF)330284595072
111TDAO3COLUMBIA-THE DALLES DAM01-23-2023INFLOW (KAF)335274645972
112BONO3COLUMBIA-BONNEVILLE DAM01-23-2023INFLOW (KAF)346184850771
113HOPI1PEND OREILLE-PEND OREILLE LAKE NR HOPE01-23-2023LAKE ELEVATION (FT)MMM
114BFEI1KOOTENAI-AT BONNERS FERRY01-23-2023STAGE (FT)MMM
115SJMI1ST JOE-AT ST MARIES01-23-2023STAGE (FT)MMM